Flag for Antigua and Barbuda Weather past 2 weeks in Saint John's, Antigua and Barbuda

Now
77 °F

Light rain. Partly sunny.


Feels Like: 78 °F
Forecast: N/A
Wind: 13 mph from Southeast

Location: Vc Bird International Antigua Airport

Current Time: Aug 27, 2015 at 5:47:00 PM

Latest Report: Aug 27, 2015 at 5:00 PM


Visibility: N/A

Pressure: 29.89 "Hg

Humidity: 83%

Dew point: 72 °F

Location of Saint John'sLocation

Historic Weather in Saint John's — Graph

°F

Saint John's temperature yesterday

Maximum temperature yesterday: 88 °F (at 2:00 PM)
Minimum temperature yesterday: 81 °F (at 7:00 AM)
Average temperature yesterday: 84 °F

Past Weeks' High & Low Weather Summary

 TemperatureHumidityPressure
High90 °F (Aug 23, 12:00 PM)94% (Aug 14, 7:00 PM)30.07 "Hg (Aug 14, 7:00 PM)
Low77 °F (Aug 14, 7:00 PM)59% (Aug 13, 2:00 PM)29.77 "Hg (Aug 27, 3:00 AM)
Average83 °F76%29.96 "Hg
* Reported Aug 12 4:00 PM — Aug 27 4:00 PM, Saint John's, Weather by CustomWeather, © 2015

Note: Actual official high and low records may vary slightly from our data, if they occured in-between our weather recording intervals... More about our weather records

Advertising

Saint John's weather history for previous 24 hours

 ConditionsComfort  
Time TempWeatherWind HumidityBarometerVisibility
4:00 PM
Thu, Aug 27
79 °FLight rain. Partly sunny.14 mph84%29.89 "HgN/A
3:00 PM77 °FLight rain. Partly sunny.17 mph83%29.89 "HgN/A
2:00 PM77 °FRain. Broken clouds.16 mph89%29.89 "Hg4 mi
1:00 PM79 °FRain. Scattered clouds.22 mph79%29.92 "Hg5 mi
12:00 PM77 °FSprinkles. Partly sunny.23 mph89%29.92 "HgN/A
11:00 AM77 °FSprinkles. Scattered clouds.22 mph89%29.89 "HgN/A
10:00 AM77 °FSprinkles. Partly sunny.23 mph89%29.89 "Hg2 mi
9:00 AM79 °FSprinkles. Partly sunny.17 mph84%29.86 "Hg4 mi
8:00 AM79 °FScattered showers. Passing clouds.10 mph84%29.83 "HgN/A
7:00 AM79 °FScattered clouds.15 mph84%29.83 "HgN/A
6:00 AM77 °FThunderstorms. Scattered clouds.14 mph83%29.80 "HgN/A
5:41 AM79 °FThunderstorms. Passing clouds.18 mph84%29.80 "HgN/A
5:00 AM79 °FPassing clouds.22 mph84%29.80 "HgN/A
4:00 AM81 °FThundershowers. Passing clouds.22 mph74%29.77 "HgN/A
3:00 AM81 °FSprinkles. Partly cloudy.22 mph89%29.77 "HgN/A
2:00 AM82 °FPassing clouds.18 mph79%29.80 "HgN/A
1:00 AM81 °FThundershowers. Partly cloudy.16 mph84%29.80 "HgN/A
11:00 PM
Wed, Aug 26
82 °FPassing clouds.20 mph84%29.83 "HgN/A
9:00 PM82 °FPassing clouds.16 mph84%29.83 "HgN/A
8:00 PM82 °FPassing clouds.16 mph84%29.83 "HgN/A
7:00 PM82 °FSprinkles. Partly cloudy.20 mph84%29.83 "HgN/A
6:00 PM82 °FScattered showers. Passing clouds.20 mph84%29.83 "HgN/A
5:00 PM86 °FBroken clouds.17 mph75%29.83 "HgN/A
Weather by CustomWeather, © 2015

See weather overviewHow to use our weather pages